[[{"header":{"parameterUnit":"m.s-1","parameterCategory":1,"la1":30.2991,"la2":30.254,"lo1":-89.0895,"lo2":-89.0444,"dy":0.0017,"dx":0.0017,"nx":28,"ny":28,"refTime":"2024-03-21T03:00:00:Z","depth":0,"parameterNumber":2,"parameterNumberName":"U-component_of_WINDS"},"data":[0,0,0,0,0,0,0,0,0,0,0,0,0,0,0,0,0,0,0,0,0,0,0,0,0,0,0,0,0,0,0,0,0,0,0,0,0,0,0,0,0,0,0,0,0,0,0,0,0,0,0,0,0,0,0,0,0,0,0.9318,0.9319,0,0.9379,0.9379,0.938,0.9358,0.9356,0.9355,0.9354,0.9416,0.9419,0.9422,0,0,0,0,0,0,0,0,0,0,0,0,0,0.9183,0.9186,0.9318,0.9319,0.932,0.9378,0.9379,0.938,0.9358,0.9356,0.9354,0.9353,0.9415,0.9419,0.9422,0,0,0,0,0,0,0,0,0,0,0,0,0,0.9243,0.9187,0.9318,0.9316,0.9316,0.9378,0.9379,0.938,0.9358,0.9356,0.9354,0.9352,0.9414,0.9418,0.9423,0.9491,0,0,0.9436,0.9438,0,0,0,0,0,0,0,0,0.9239,0.9248,0.9315,0.9316,0.9316,0.9358,0.9355,0.9418,0.9359,0.9342,0.9353,0.9351,0.9399,0.9404,0.942,0.9494,0.9497,0.9437,0.9439,0.9441,0.9442,0,0,0,0,0,0,0,0.9235,0.9245,0.9342,0.9316,0.9317,0.9311,0.9318,0.9366,0.9381,0.9343,0.9342,0.9349,0.9399,0.9416,0.9421,0.9498,0.9436,0.944,0.9443,0.9445,0.9629,0.9631,0,0,0,0,0,0,0.9231,0.9242,0.934,0.9344,0.9272,0.9315,0.9322,0.9347,0.9381,0.9384,0.9351,0.9348,0.9409,0.9416,0.9423,0.9504,0.9441,0.9445,0.9448,0.9626,0.9629,0.9631,0,0,0,0,0,0,0.9228,0.924,0.9338,0.9292,0.9304,0.932,0.9348,0.9349,0.9366,0.9386,0.9389,0.9366,0.9408,0.9417,0.9474,0.9506,0.9447,0.9451,0.9624,0.9627,0.963,0.9666,0,0,0,0,0,0,0.9224,0.9239,0.9265,0.9293,0.9307,0.9387,0.935,0.9352,0.9374,0.9371,0.9401,0.9404,0.9407,0.9467,0.9478,0.9511,0.9455,0.9621,0.9625,0.9629,0.9662,0.9671,0.9678,0,0,0,0,0,0.9219,0.9274,0.9267,0.9279,0.934,0.9389,0.9397,0.9399,0.9377,0.9403,0.9416,0.9403,0.9501,0.9473,0.9485,0.952,0.9619,0.9624,0.9629,0.9659,0.9669,0.9677,0,0,0,0,0,0,0.925,0.9277,0.927,0.9335,0.936,0.9385,0.9419,0.941,0.9442,0.9438,0.9439,0.9446,0.9504,0.9518,0.9487,0.9587,0.9556,0.9564,0.9575,0.9585,0.9592,0.9587,0.9458,0,0,0,0,0,0.9264,0.9302,0.9324,0.9379,0.9392,0.9403,0.9425,0.9424,0.945,0.946,0.9477,0.9503,0.9539,0.9563,0.9598,0.9665,0.967,0.9694,0.9702,0.9708,0.9714,0.9748,0.9759,0.9648,0.9648,0.9648,0,0,0.9294,0.9314,0.9337,0.9385,0.9405,0.9443,0.9412,0.9455,0.9483,0.9467,0.9521,0.9534,0.9563,0.9624,0.9652,0.9638,0.9746,0.9715,0.9719,0.9722,0.9755,0.9765,0.9774,0.9651,0.9651,0.965,0,0,0.9367,0.9387,0.9433,0.9453,0.9482,0.9489,0.9501,0.9527,0.9535,0.9589,0.9578,0.9611,0.9675,0.9695,0.9713,0.9793,0.9782,0.9805,0.9844,0.9877,0.9886,0.9894,0.992,0.993,0.9811,0.9811,0.9811,0,0.94,0.9458,0.9459,0.9501,0.9522,0.9509,0.9556,0.9576,0.9615,0.9629,0.9612,0.969,0.9709,0.9774,0.9793,0.9809,0.9821,0.9801,0.9885,0.9892,0.9899,0.9925,0.9935,0.9814,0.9813,0.9813,0.9813,0,0.9496,0.9536,0.957,0.9607,0.9632,0.9677,0.9684,0.971,0.9707,0.9715,0.977,0.9792,0.9829,0.9845,0.9844,0.991,0.9899,0.9884,0.9853,0.9912,0.9936,0.9946,0.9817,0.9816,0.9815,0.9815,0,0,0.959,0.9626,0.9639,0.9654,0.9685,0.9716,0.976,0.9796,0.9816,0.9844,0.988,0.9933,0.9918,0.9939,0.994,0.9969,1.0028,0.995,0.995,0.9962,1.01,1.011,1.0122,1.0022,1.0024,1.0025,1.0097,0,0.9664,0.974,0.9742,0.9811,0.9847,0.9835,0.9873,0.9895,0.9905,0.9936,0.9947,0.9983,0.9962,0.9974,1.0003,1.0015,1.0056,1.001,1.0054,1.0056,1.0045,1.0134,1.0145,1.0212,1.0107,1.0108,1.0109,0,0.976,0.9789,0.9862,0.9886,0.9901,0.9935,0.9967,0.9998,1.0024,1.0028,1.0051,1.0047,1.009,1.006,1.0119,1.0088,1.0106,1.0115,1.0117,1.012,1.0085,1.0137,1.0234,1.0243,1.0124,1.0123,1.0122,0,0.9818,0.9876,0.9927,0.9941,0.9971,0.9994,1.0008,1.0031,1.0052,1.0081,1.0095,1.0129,1.0147,1.0173,1.0178,1.0155,1.0237,1.0207,1.0241,1.024,1.0257,1.0256,1.0355,1.0272,1.0272,1.0272,1.0272,0,0.99,0.9944,0.9953,0.9984,1.0033,1.0034,1.0083,1.0095,1.0115,1.0148,1.014,1.0171,1.0176,1.0208,1.0212,1.0259,1.0268,1.0272,1.0272,1.0272,1.0271,1.0282,1.0277,1.0275,1.0274,1.0274,1.0273,0,0.9973,0.998,1.0034,1.0057,1.0064,1.0099,1.0119,1.0148,1.0156,1.0197,1.0207,1.022,1.0257,1.0264,1.0308,1.0311,1.0367,1.0364,1.0358,1.0357,1.039,1.0385,1.0499,1.0513,1.0422,1.0423,1.0424,0,1.0023,1.0056,1.0083,1.0104,1.0118,1.0152,1.0173,1.0177,1.0199,1.0229,1.0254,1.029,1.0319,1.0378,1.0391,1.0424,1.042,1.0458,1.0425,1.0423,1.0418,1.0415,1.0418,1.0463,1.0464,1.0465,1.0466,0,1.0111,1.0112,1.0143,1.0175,1.02,1.0225,1.0249,1.0267,1.0273,1.0299,1.0335,1.0358,1.0402,1.0437,1.047,1.0483,1.0475,1.0476,1.0485,1.0484,1.0478,1.048,1.0373,1.0473,1.0472,1.0472,1.0472,1.0471,1.0172,1.0201,1.0223,1.0257,1.0275,1.0297,1.0325,1.0336,1.0367,1.0403,1.0403,1.0443,1.0466,1.0509,1.0525,1.0556,1.0544,1.0558,1.0561,1.0564,1.0566,1.0475,1.0562,1.0562,1.0562,1.0562,1.0562,0,1.0258,1.0271,1.0302,1.0335,1.0362,1.0352,1.0378,1.04,1.0435,1.0458,1.0485,1.0527,1.0561,1.0576,1.061,1.0631,1.0628,1.064,1.0637,1.064,1.0576,1.0563,1.0641,1.0641,1.0641,1.0641,1.0641,1.0641,1.0305,1.0352,1.0356,1.0411,1.0425,1.0463,1.0478,1.0499,1.0516,1.0563,1.059,1.06,1.0619,1.0654,1.0684,1.0687,1.0699,1.0712,1.0714,1.0653,1.0645,1.0637,1.0625,1.0715,1.0715,1.0775,1.0775,1.0776]},{"header":{"parameterUnit":"m.s-1","parameterCategory":1,"la1":30.2991,"la2":30.254,"lo1":-89.0895,"lo2":-89.0444,"dy":0.0017,"dx":0.0017,"nx":28,"ny":28,"refTime":"2024-03-21T03:00:00:Z","depth":0,"parameterNumber":3,"parameterNumberName":"V-component_of_WINDS"},"data":[0,0,0,0,0,0,0,0,0,0,0,0,0,0,0,0,0,0,0,0,0,0,0,0,0,0,0,0,0,0,0,0,0,0,0,0,0,0,0,0,0,0,0,0,0,0,0,0,0,0,0,0,0,0,0,0,0,0,-0.3419,-0.3419,0,-0.3446,-0.3446,-0.3447,-0.3493,-0.3494,-0.3495,-0.3496,-0.3521,-0.3521,-0.3521,0,0,0,0,0,0,0,0,0,0,0,0,0,-0.3407,-0.3406,-0.3419,-0.3419,-0.342,-0.3446,-0.3446,-0.3447,-0.3493,-0.3494,-0.3495,-0.3496,-0.3521,-0.3521,-0.3521,0,0,0,0,0,0,0,0,0,0,0,0,0,-0.342,-0.3406,-0.3419,-0.3446,-0.3449,-0.3446,-0.3446,-0.3447,-0.3493,-0.3494,-0.3495,-0.3496,-0.3521,-0.3521,-0.3521,-0.3493,0,0,-0.352,-0.352,0,0,0,0,0,0,0,0,-0.342,-0.3421,-0.3442,-0.3444,-0.3447,-0.3468,-0.3451,-0.3462,-0.3492,-0.3476,-0.3496,-0.3497,-0.3502,-0.3504,-0.3506,-0.3495,-0.3496,-0.352,-0.352,-0.352,-0.352,0,0,0,0,0,0,0,-0.3419,-0.342,-0.343,-0.3442,-0.3445,-0.3456,-0.346,-0.3454,-0.3481,-0.3477,-0.3481,-0.3483,-0.3504,-0.3506,-0.3507,-0.3496,-0.352,-0.352,-0.352,-0.352,-0.3466,-0.3464,0,0,0,0,0,0,-0.3414,-0.3419,-0.3429,-0.343,-0.3436,-0.3456,-0.3459,-0.346,-0.3481,-0.3486,-0.3482,-0.3486,-0.3506,-0.3507,-0.3508,-0.3478,-0.352,-0.352,-0.352,-0.3467,-0.3465,-0.3464,0,0,0,0,0,0,-0.3413,-0.3414,-0.3428,-0.3426,-0.3428,-0.3454,-0.3454,-0.3459,-0.3461,-0.3485,-0.349,-0.3479,-0.3507,-0.3508,-0.3497,-0.3479,-0.352,-0.352,-0.3468,-0.3466,-0.3464,-0.3417,0,0,0,0,0,0,-0.3413,-0.3414,-0.3404,-0.3425,-0.3428,-0.3416,-0.3453,-0.3459,-0.3461,-0.3466,-0.3484,-0.3488,-0.3508,-0.3497,-0.3497,-0.348,-0.352,-0.347,-0.3467,-0.3465,-0.342,-0.3414,-0.3408,0,0,0,0,0,-0.3412,-0.3388,-0.3403,-0.3404,-0.3416,-0.3415,-0.3417,-0.3441,-0.346,-0.345,-0.3465,-0.3487,-0.3482,-0.3496,-0.3496,-0.3478,-0.3471,-0.3468,-0.3465,-0.3423,-0.3415,-0.3408,0,0,0,0,0,0,-0.3363,-0.3392,-0.3408,-0.339,-0.34,-0.3423,-0.3411,-0.3431,-0.3436,-0.3439,-0.3468,-0.3472,-0.3458,-0.3467,-0.3482,-0.3454,-0.348,-0.3477,-0.3448,-0.344,-0.3434,-0.3432,-0.3519,0,0,0,0,0,-0.335,-0.3348,-0.3373,-0.3355,-0.3359,-0.3384,-0.3385,-0.3403,-0.3414,-0.3418,-0.3433,-0.3442,-0.3443,-0.3442,-0.3444,-0.3422,-0.3427,-0.3411,-0.3404,-0.3399,-0.3396,-0.3386,-0.3379,-0.3454,-0.3454,-0.3454,0,0,-0.3324,-0.3339,-0.3335,-0.3346,-0.3355,-0.3352,-0.3387,-0.3382,-0.338,-0.3417,-0.3408,-0.3419,-0.3432,-0.3416,-0.3409,-0.3423,-0.3377,-0.3395,-0.3391,-0.3391,-0.3383,-0.3375,-0.3369,-0.3452,-0.3452,-0.3453,0,0,-0.3273,-0.3285,-0.3272,-0.3281,-0.3296,-0.3313,-0.331,-0.333,-0.3339,-0.3331,-0.3359,-0.3357,-0.3357,-0.3365,-0.3369,-0.3324,-0.3345,-0.3324,-0.3292,-0.3282,-0.3276,-0.3271,-0.3255,-0.3249,-0.3321,-0.3321,-0.3321,0,-0.3238,-0.3234,-0.3262,-0.3255,-0.3259,-0.3294,-0.3281,-0.3289,-0.3303,-0.3305,-0.332,-0.3322,-0.3333,-0.332,-0.3309,-0.3311,-0.3309,-0.3322,-0.3275,-0.327,-0.3266,-0.3251,-0.3245,-0.3318,-0.3318,-0.3319,-0.3319,0,-0.3191,-0.3188,-0.3176,-0.319,-0.3192,-0.3182,-0.3208,-0.3208,-0.3226,-0.3241,-0.3233,-0.3248,-0.3254,-0.3252,-0.3269,-0.3242,-0.325,-0.327,-0.3296,-0.3255,-0.3242,-0.3237,-0.3314,-0.3315,-0.3316,-0.3317,0,0,-0.3108,-0.3139,-0.3134,-0.3142,-0.3162,-0.316,-0.3152,-0.3159,-0.3158,-0.3167,-0.3161,-0.3161,-0.318,-0.3185,-0.3204,-0.3195,-0.3159,-0.3216,-0.3217,-0.3205,-0.3131,-0.3115,-0.3108,-0.3174,-0.3173,-0.3172,-0.313,0,-0.3062,-0.3051,-0.3076,-0.3059,-0.3057,-0.3091,-0.3084,-0.3096,-0.311,-0.3111,-0.3127,-0.3127,-0.3152,-0.3155,-0.3149,-0.3165,-0.3145,-0.3169,-0.3168,-0.3168,-0.3164,-0.3101,-0.3085,-0.3044,-0.3125,-0.3124,-0.3123,0,-0.3006,-0.3014,-0.2996,-0.3018,-0.3019,-0.3012,-0.3021,-0.3021,-0.3035,-0.3047,-0.3053,-0.3075,-0.3069,-0.3096,-0.3089,-0.3104,-0.3106,-0.3114,-0.3113,-0.3114,-0.3143,-0.31,-0.3032,-0.3025,-0.3115,-0.3116,-0.3116,0,-0.2948,-0.2954,-0.2945,-0.295,-0.2975,-0.297,-0.2981,-0.2996,-0.2999,-0.3007,-0.3009,-0.3016,-0.3019,-0.3024,-0.3048,-0.3065,-0.3037,-0.3066,-0.3047,-0.3046,-0.3039,-0.3039,-0.2969,-0.304,-0.304,-0.304,-0.3041,0,-0.2893,-0.2881,-0.2919,-0.2913,-0.2901,-0.2931,-0.2918,-0.2932,-0.2945,-0.2943,-0.2973,-0.297,-0.3001,-0.3002,-0.3021,-0.3012,-0.3013,-0.3022,-0.3027,-0.3019,-0.3018,-0.302,-0.3024,-0.3039,-0.3039,-0.3039,-0.304,0,-0.2826,-0.2851,-0.2843,-0.2869,-0.2875,-0.2865,-0.2887,-0.2882,-0.29,-0.2896,-0.2897,-0.2924,-0.2927,-0.2951,-0.2959,-0.2971,-0.2955,-0.2966,-0.2951,-0.2954,-0.2933,-0.2935,-0.2863,-0.2855,-0.2931,-0.293,-0.2929,0,-0.2789,-0.2781,-0.2806,-0.2807,-0.2817,-0.2817,-0.2821,-0.285,-0.2853,-0.2869,-0.2863,-0.2868,-0.2874,-0.2876,-0.2896,-0.2902,-0.2913,-0.2887,-0.2914,-0.2907,-0.2913,-0.2913,-0.2912,-0.2881,-0.288,-0.288,-0.2879,0,-0.2721,-0.2735,-0.2739,-0.2748,-0.2752,-0.276,-0.277,-0.2769,-0.2801,-0.2803,-0.2806,-0.281,-0.2819,-0.2824,-0.2834,-0.2844,-0.2867,-0.2871,-0.2867,-0.2858,-0.285,-0.2854,-0.2935,-0.2872,-0.2873,-0.2873,-0.2873,-0.2874,-0.2668,-0.2663,-0.268,-0.2685,-0.2696,-0.2705,-0.2702,-0.272,-0.2724,-0.2733,-0.2751,-0.2752,-0.2767,-0.2783,-0.2792,-0.2794,-0.2807,-0.2801,-0.2799,-0.2797,-0.2793,-0.285,-0.2796,-0.2796,-0.2796,-0.2796,-0.2796,0,-0.2602,-0.2616,-0.2619,-0.2633,-0.2636,-0.2659,-0.2672,-0.2673,-0.2673,-0.2686,-0.2692,-0.2696,-0.2701,-0.2723,-0.273,-0.2727,-0.2738,-0.2728,-0.2728,-0.2731,-0.2781,-0.2784,-0.272,-0.272,-0.272,-0.272,-0.272,-0.272,-0.2568,-0.2561,-0.2576,-0.2575,-0.2588,-0.259,-0.2596,-0.2604,-0.2615,-0.2619,-0.2624,-0.2638,-0.2654,-0.2664,-0.267,-0.2676,-0.2677,-0.2664,-0.2674,-0.272,-0.2727,-0.2734,-0.2737,-0.2664,-0.2664,-0.2624,-0.2623,-0.2623]}]]